Terminal Aerodrome Forecast
Issued by NWS

Home | Current Version | Previous Version | Text Only | Print | Product List | Glossary On
Versions: 1 2 3 4 5 6 7 8 9 10 11 12 13 14 15 16
268
FTUS43 KDTX 130523
TAFDET
TAF
KDET 130523Z 1306/1406 31011KT P6SM SCT040
     FM131600 30012G20KT P6SM BKN040
     FM140000 30009KT P6SM SCT045=

USA.gov is the U.S. government's official web portal to all federal, state and local government web resources and services.